OSCAR 7 (AO-7)

Last updated on Mon Nov 03 2025 00:03:21 GMT+0000 (Coordinated Universal Time)

1 07530U 74089B 25306.26639884 -.00000015 00000+0 19935-3 0 9991 2 07530 101.9980 312.1051 0012066 203.2667 167.8423 12.53693043332082
UTC large
Height (km)
Speed (km/s)
/
Latitude / Longitude
Inclination (degrees)
Orbital Period (minutes)
Azimuth
Elevation
Range (km)
Doppler Factor

Next 0 passes for location: London (51.5072 / 0.1276)

Sorry there are no passes over London.